LEGION B

Last updated on Sat Aug 17 2024 00:02:05 GMT+0000 (Coordinated Universal Time)

1 60453U 24146B 24228.81996975 .00208030 00000+0 43947-1 0 9997 2 60453 45.0391 43.7507 0004241 165.4841 263.6649 14.57432339 38
UTC large
Height (km)
Speed (km/s)
/
Latitude / Longitude
Inclination (degrees)
Orbital Period (minutes)
Azimuth
Elevation
Range (km)
Doppler Factor

Next 0 passes for location: London (51.5072 / 0.1276)

Sorry there are no passes over London.